sat.trackr.live / text

‹ back to catalog

SJ-11-01

NORAD 36088 · 2009-061A

PAYLOAD ACTIVE UNKNOWN

§ Identity

Operator
Country
PRC
Launch date
2009-11-12
Launch site
JSC
Launch vehicle
Mass (kg)
RCS (m²)
2.28

External: N2YO · Heavens-Above · Gunter

§ Orbital elements

Epoch: 2026-09-20T05:04:31.180800Z

Period
98.38 min
Inclination
98.0174°
Eccentricity
0.0012336
Mean motion
14.63761709 rev/d
Perigee alt
672.3 km
Apogee alt
689.8 km
Semi-major
7,059.2 km
B*
6.6070e-5
RAAN
241.5590°
Arg perigee
83.0460°
Mean anomaly
333.3282°
Rev number
89,839

§ Raw data

SJ-11-011 36088U 09061A   26263.21147200  .00000298  00000+0  66070-4 0  99982 36088  98.0174 241.5590 0012336  83.0460 333.3282 14.63761709898393

JSON: /api/v1/satellites/36088 · /tle

For live sub-satellite position, see the globe view (requires WebGL).

§ Visibility from observer

Set your observer location to see the next 7 days of passes ≥ 10°. The values pass through the URL so the page stays shareable.

No JS? Fill the form by hand. The geolocation button needs JavaScript.